Weather in Berlin

United States     41°37′16″N   72°44′45″W
temp.,
°C
wind,
m/s
gust,
m/s
humid.,
%
clouds,
%
prec.,
mm/h
press.,
hPa
HPBL,
m
26 may, thu
thu2623:00+9s2379100 0.0 102984
02:00+9s1279100 0.0 102840
05:00+8sse1186100 0.0 102831
08:00+13s3668100 0.0 1028480
11:00+18s5747100 0.0 1026988
14:00+19s5746100 0.0 10251192
17:00+19s58565 0.0 10221142
20:00+15s4108295 0.0 1021585
27 may, fri
fri2723:00+15ssw31286100 0.0 1020548
02:00+16s31292100 0.0 1018490
05:00+16s31397100 0.1 1017548
08:00+18ssw31397100 0.2 1017571
11:00+22ssw5107679 0.0 1015846
14:00+24ssw6106795 0.1 10131074
17:00+22s598099 0.1 1012774
20:00+18s3899100 1.3 1012368
28 may, sat
sat2823:00+18ssw41399100 0.6 1011740
02:00+17s31299100 1.5 1010624
05:00+17s41299100 0.9 1008675
08:00+17s31198100 1.1 1008643
11:00+18ssw3693100 0.0 1007497
14:00+23ssw4765100 0.1 1006962
17:00+25s35553 0.1 10051139
20:00+18w128948 2.5 100730
29 may, sun
sun2923:00+15n27950 0.1 1009156
02:00+14nw29965 0.1 1011254
05:00+13nw22975 0.0 101352
08:00+17nnw26784 0.0 1015326
11:00+23nnw23374 0.0 10161475
14:00+27wnw232948 0.0 10152008
17:00+26wsw333131 0.0 10151995
20:00+19ssw226578 0.0 101717
30 may, mon
mon3023:00+16sw257522 0.0 101899
02:00+14ssw128396 0.0 101817
05:00+15sw1283100 0.0 101817
08:00+20wsw366466 0.0 1019305
11:00+27wsw464784 0.0 10181114
14:00+31sw463799 0.0 10151981
17:00+31wsw473963 0.0 10131808
20:00+24s3665100 0.0 1013186